International Falls, MN

1:17 AM CST on December 18, 2017 (GMT -0600)
Falls International

Weather History for KINL - August, 2013

Change the Weather History Date:

Wednesday, August 7, 2013

  Actual Average Record
Temperature  
Mean Temperature 54 °F 65 °F  
Max Temperature 67 °F 78 °F 94 °F (1983)
Min Temperature 40 °F 52 °F 40 °F (1926)
Degree Days  
Heating Degree Days 11 3  
Month to date heating degree days 48 15  
Since 1 June heating degree days 302 249  
Since 1 July heating degree days 133 85  
Cooling Degree Days 0 2  
Month to date cooling degree days 0 14  
Year to date cooling degree days 127 137  
Since 1 June cooling degree days 124 128  
Growing Degree Days 2 (Base 50)    
Moisture  
Dew Point 46 °F    
Average Humidity 72    
Maximum Humidity 100    
Minimum Humidity 44    
Precipitation  
Precipitation 0.00 in 0.09 in 0.83 in (1992)
Month to date precipitation 0.63 0.62  
Year to date precipitation 22.01 14.77  
Snow  
Snow 0.00 in 0.00 in 0.00 in (2002)
Month to date snowfall 0.0 0.0  
Since 1 June snowfall 0.0 0.0  
Since 1 July snowfall 0.0 0.0  
Snow Depth 0.00 in    
Sea Level Pressure  
Sea Level Pressure 29.96 in    
Wind  
Wind Speed 6 mph (WNW)    
Max Wind Speed 17 mph    
Max Gust Speed 23 mph    
Visibility 10 miles    
Events      
T = Trace of Precipitation, MM = Missing Value Source: NWS Daily Summary

Daily Weather History Graph

Daily Weather History Graph

Search for Another Location

Airport or City:

Trip Planner

Search our weather history database for the weather conditions in past years. The results will help you decide how hot, cold, wet, or windy it might be!

Date:

Astronomy

Aug. 07, 2013 Rise Set
Actual Time 5:56 AM CDT 8:41 PM CDT
Civil Twilight 5:20 AM CDT 9:17 PM CDT
Nautical Twilight 4:34 AM CDT 10:02 PM CDT
Astronomical Twilight 3:39 AM CDT 10:56 PM CDT
Moon 6:55 AM CDT (8/7) 8:36 PM CDT (8/7)
Length of Visible Light 15h 56m
Length of Day
14h 45m
New Moon, 1% of the Moon is Illuminated
Aug 7
New Moon
Aug 14
First Quarter
Aug 20
Full
Aug 28
Last Quarter
Sep 5
New

Hourly Weather History & Observations

Time (CDT) Temp. Windchill Dew Point Humidity Pressure Visibility Wind Dir Wind Speed Gust Speed Precip Events Conditions
12:55 AM 46.9 °F - 46.9 °F 100% 29.86 in 10.0 mi Calm Calm - N/A   Clear
1:55 AM 43.0 °F - 42.1 °F 97% 29.88 in 10.0 mi Calm Calm - N/A   Clear
2:55 AM 41.0 °F - 39.9 °F 96% 29.88 in 10.0 mi Calm Calm - N/A   Clear
3:55 AM 44.1 °F - 42.1 °F 93% 29.89 in 10.0 mi Calm Calm - N/A   Clear
4:55 AM 45.0 °F - 44.1 °F 97% 29.90 in 10.0 mi Calm Calm - N/A   Clear
5:55 AM 45.0 °F 43.5 °F 44.1 °F 97% 29.91 in 10.0 mi West 3.5 mph - N/A   Clear
6:55 AM 46.9 °F - 46.0 °F 97% 29.93 in 10.0 mi WNW 3.5 mph - N/A   Clear
7:55 AM 52.0 °F - 50.0 °F 93% 29.94 in 10.0 mi West 5.8 mph - N/A   Clear
8:55 AM 57.9 °F - 53.1 °F 84% 29.94 in 10.0 mi WNW 11.5 mph - N/A   Clear
9:55 AM 59.0 °F - 48.9 °F 69% 29.94 in 10.0 mi WNW 11.5 mph - N/A   Clear
10:55 AM 62.1 °F - 48.9 °F 62% 29.96 in 10.0 mi NW 11.5 mph 17.3 mph N/A   Clear
11:55 AM 63.0 °F - 48.0 °F 58% 29.97 in 10.0 mi West 13.8 mph 20.7 mph N/A   Clear
12:55 PM 64.9 °F - 48.0 °F 54% 29.98 in 10.0 mi WNW 12.7 mph - N/A   Partly Cloudy
1:55 PM 66.0 °F - 46.9 °F 50% 29.99 in 10.0 mi West 13.8 mph 18.4 mph N/A   Partly Cloudy
2:55 PM 66.0 °F - 44.1 °F 45% 29.99 in 10.0 mi West 9.2 mph - N/A   Mostly Cloudy
3:55 PM 66.0 °F - 44.1 °F 45% 29.99 in 10.0 mi WNW 10.4 mph - N/A   Mostly Cloudy
4:55 PM 64.9 °F - 43.0 °F 45% 29.99 in 10.0 mi WNW 11.5 mph 17.3 mph N/A   Partly Cloudy
5:55 PM 63.0 °F - 46.0 °F 54% 30.01 in 10.0 mi West 5.8 mph - N/A   Overcast
6:55 PM 63.0 °F - 45.0 °F 52% 30.00 in 10.0 mi West 6.9 mph - N/A   Partly Cloudy
7:55 PM 57.0 °F - 46.0 °F 67% 30.00 in 10.0 mi WSW 4.6 mph - N/A   Clear
8:55 PM 54.0 °F - 46.9 °F 77% 30.01 in 10.0 mi West 3.5 mph - N/A   Clear
9:55 PM 55.0 °F - 48.0 °F 77% 30.01 in 10.0 mi Calm Calm - N/A   Overcast
10:55 PM 48.0 °F - 46.0 °F 93% 30.02 in 10.0 mi Calm Calm - N/A   Clear
11:55 PM 46.0 °F - 45.0 °F 96% 30.03 in 10.0 mi Calm Calm - N/A   Clear